CW9098 Weather Reports


Display with metric or nautical units.
time (UTC)temp
F
wind
direction
speed
MPH
gust
MPH
rain 1hr
in
rain 24hr
in
rain mn
in
humidity
%
barometer
mb
20210621125119 76 190 7.0 14.0 0.00 0.00 0.00 78 1006.6
20210621124628 76 188 6.0 13.0 0.00 0.00 0.00 79 1006.5
20210621124115 75 185 10.0 14.0 0.00 0.00 0.00 79 1006.7
20210621123624 75 198 9.0 14.0 0.00 0.00 0.00 80 1006.9
20210621123119 74 194 8.0 11.0 0.00 0.00 0.00 80 1007.1
20210621122626 74 199 5.0 10.0 0.00 0.00 0.00 81 1007.1
20210621122115 73 191 5.0 10.0 0.00 0.00 0.00 82 1007.2
20210621121623 73 178 6.0 10.0 0.00 0.00 0.00 82 1007.1
20210621121130 72 199 3.0 9.0 0.00 0.00 0.00 83 1007.1
20210621120617 71 212 5.0 9.0 0.00 0.00 0.00 83 1007.1
20210621120127 71 214 5.0 9.0 0.00 0.00 0.00 83 1007.1
20210621115615 71 218 4.0 10.0 0.00 0.00 0.00 84 1007.1
20210621115123 70 191 7.0 10.0 0.00 0.00 0.00 84 1007.1
20210621114616 70 228 5.0 9.0 0.00 0.00 0.00 85 1007.2
20210621114125 69 212 4.0 9.0 0.00 0.00 0.00 85 1007.1
20210621113633 69 197 6.0 9.0 0.00 0.00 0.00 86 1007.2
20210621113122 68 191 5.0 9.0 0.00 0.00 0.00 86 1007.3
20210621112630 68 217 5.0 9.0 0.00 0.00 0.00 86 1007.3
20210621112118 68 237 5.0 8.0 0.00 0.00 0.00 87 1007.4
20210621111627 68 226 2.0 8.0 0.00 0.00 0.00 87 1007.3
20210621111115 67 208 6.0 9.0 0.00 0.00 0.00 87 1007.3
20210621110622 67 213 5.0 9.0 0.00 0.00 0.00 87 1007.4
20210621110116 66 204 5.0 9.0 0.00 0.00 0.00 87 1007.3
20210621105623 66 223 5.0 9.0 0.00 0.00 0.00 88 1007.2
20210621105132 66 196 5.0 9.0 0.00 0.00 0.00 87 1007.3
20210621104621 66 228 4.0 7.0 0.00 0.00 0.00 87 1007.4
20210621104129 66 224 3.0 7.0 0.00 0.00 0.00 87 1007.3
20210621103617 65 228 2.0 9.0 0.00 0.00 0.00 88 1007.3
20210621103126 65 234 6.0 9.0 0.00 0.00 0.00 88 1007.3
20210621102614 65 234 7.0 9.0 0.00 0.00 0.00 87 1007.2
20210621102122 65 224 3.0 7.0 0.00 0.00 0.00 87 1007.3
20210621101616 65 230 4.0 8.0 0.00 0.00 0.00 87 1007.4
20210621101125 65 252 5.0 8.0 0.00 0.00 0.00 87 1007.6
20210621100633 65 229 5.0 7.0 0.00 0.00 0.00 88 1007.5
20210621100121 65 227 5.0 7.0 0.00 0.00 0.00 88 1007.5
20210621095630 64 226 4.0 6.0 0.00 0.00 0.00 87 1007.4
20210621095119 64 201 5.0 6.0 0.00 0.00 0.00 87 1007.5
20210621094628 65 207 2.0 4.0 0.00 0.00 0.00 87 1007.6
20210621094116 65 207 1.0 6.0 0.00 0.00 0.00 87 1007.5
20210621093625 65 203 3.0 6.0 0.00 0.00 0.00 87 1007.5
20210621093117 65 214 2.0 5.0 0.00 0.00 0.00 87 1007.5
20210621092623 65 214 1.0 5.0 0.00 0.00 0.00 87 1007.5
20210621092132 65 215 1.0 3.0 0.00 0.00 0.00 87 1007.5
20210621091621 65 216 1.0 4.0 0.00 0.00 0.00 87 1007.5
20210621091128 65 216 1.0 4.0 0.00 0.00 0.00 87 1007.5
20210621090617 65 216 2.0 5.0 0.00 0.00 0.00 87 1007.4
20210621090126 65 218 3.0 6.0 0.00 0.00 0.00 87 1007.4
20210621085614 65 216 2.0 6.0 0.00 0.00 0.00 87 1007.3
20210621085123 65 218 4.0 5.0 0.00 0.00 0.00 87 1007.4
20210621084615 65 218 1.0 4.0 0.00 0.00 0.00 87 1007.4
20210621084122 65 219 0.0 4.0 0.00 0.00 0.00 87 1007.4
20210621083630 65 219 0.0 4.0 0.00 0.00 0.00 87 1007.3
20210621083118 65 219 1.0 4.0 0.00 0.00 0.00 87 1007.2
20210621082626 65 220 0.0 5.0 0.00 0.00 0.00 87 1007.3
20210621082115 65 220 2.0 5.0 0.00 0.00 0.00 86 1007.3
20210621081625 65 219 1.0 4.0 0.00 0.00 0.00 86 1007.3
20210621081130 65 218 0.0 0.0 0.00 0.00 0.00 87 1007.2
20210621080618 65 218 0.0 4.0 0.00 0.00 0.00 87 1007.1
20210621080129 65 218 1.0 5.0 0.00 0.00 0.00 87 1007.1
20210621075617 65 219 3.0 5.0 0.00 0.00 0.00 87 1007.0
20210621075125 66 218 0.0 3.0 0.00 0.00 0.00 87 1007.0
20210621074615 66 218 0.0 0.0 0.00 0.00 0.00 86 1006.9
20210621074123 66 218 0.0 0.0 0.00 0.00 0.00 86 1006.8
20210621073631 66 218 0.0 3.0 0.00 0.00 0.00 86 1006.9
20210621073119 66 218 1.0 3.0 0.00 0.00 0.00 86 1006.9
20210621072626 66 218 0.0 0.0 0.00 0.00 0.00 86 1007.0
20210621072132 66 218 0.0 2.0 0.00 0.00 0.00 86 1007.0
20210621071622 66 218 0.0 2.0 0.00 0.00 0.00 86 1007.1
20210621071133 66 218 0.0 6.0 0.00 0.00 0.00 86 1007.1
20210621070622 66 218 3.0 6.0 0.00 0.00 0.00 86 1007.1
20210621070132 66 218 0.0 4.0 0.00 0.00 0.00 86 1007.3
20210621065620 66 219 1.0 4.0 0.00 0.00 0.00 86 1007.3
20210621065125 66 219 0.0 0.0 0.00 0.00 0.00 86 1007.1
20210621064617 66 219 0.0 0.0 0.00 0.00 0.00 86 1007.1
20210621064126 66 219 0.0 0.0 0.00 0.00 0.00 86 1007.1
20210621063633 66 219 0.0 0.0 0.00 0.00 0.00 86 1007.2
20210621063122 66 219 0.0 3.0 0.00 0.00 0.00 86 1007.3
20210621062614 66 219 0.0 4.0 0.00 0.00 0.00 86 1007.3
20210621062121 66 219 1.0 4.0 0.00 0.00 0.00 85 1007.4
20210621061631 66 219 0.0 0.0 0.00 0.00 0.00 85 1007.5
20210621061119 67 219 0.0 3.0 0.00 0.00 0.00 86 1007.5
20210621060627 67 219 0.0 1.0 0.00 0.00 0.00 86 1007.6
20210621060116 67 219 0.0 0.0 0.00 0.00 0.00 86 1007.5
20210621055621 67 219 0.0 0.0 0.00 0.00 0.00 86 1007.6
20210621055130 67 219 0.0 0.0 0.00 0.00 0.00 86 1007.6
20210621054619 67 219 0.0 0.0 0.00 0.00 0.00 85 1007.7
20210621054131 67 218 0.0 0.0 0.00 0.00 0.00 85 1007.7
20210621053619 66 219 0.0 0.0 0.00 0.00 0.00 85 1007.9
20210621053129 67 219 0.0 0.0 0.00 0.00 0.00 85 1007.9
20210621052618 67 219 0.0 0.0 0.00 0.00 0.00 85 1007.9
20210621052127 67 219 0.0 0.0 0.00 0.00 0.00 85 1008.0
20210621051614 67 219 0.0 0.0 0.00 0.00 0.00 85 1007.9
20210621051122 67 219 0.0 0.0 0.00 0.00 0.00 85 1007.9
20210621050631 67 219 0.0 0.0 0.00 0.00 0.00 85 1007.9
20210621050120 67 219 0.0 0.0 0.00 0.00 0.00 85 1007.9
20210621045614 68 219 0.0 0.0 0.00 0.00 0.00 84 1008.0
20210621045122 68 219 0.0 0.0 0.00 0.00 0.00 84 1008.1
20210621044631 68 219 0.0 0.0 0.00 0.00 0.00 85 1008.0
20210621044120 68 219 0.0 0.0 0.00 0.00 0.00 84 1008.1
20210621043628 68 219 0.0 0.0 0.00 0.00 0.00 84 1008.1
20210621043114 68 219 0.0 0.0 0.00 0.00 0.00 84 1008.1
20210621042623 69 219 0.0 4.0 0.00 0.00 0.00 84 1008.1
20210621042129 69 218 2.0 4.0 0.00 0.00 0.00 84 1008.2
20210621041617 69 219 0.0 0.0 0.00 0.00 0.00 84 1008.2
20210621041130 69 219 0.0 0.0 0.00 0.00 0.00 84 1008.1
20210621040617 69 219 0.0 0.0 0.00 0.00 0.00 83 1008.1
20210621040126 69 219 0.0 0.0 0.00 0.00 0.00 84 1008.1
20210621035613 70 219 0.0 0.0 0.00 0.00 0.00 83 1008.0
20210621035122 70 219 0.0 0.0 0.00 0.00 0.00 83 1008.0
20210621034628 70 219 0.0 0.0 0.00 0.00 0.00 83 1007.9
20210621034117 70 219 0.0 0.0 0.00 0.00 0.00 83 1007.9
20210621033625 70 219 0.0 0.0 0.00 0.00 0.00 83 1007.8
20210621033134 70 219 0.0 0.0 0.00 0.00 0.00 83 1007.8
20210621032625 70 219 0.0 4.0 0.00 0.00 0.00 82 1007.8
20210621032114 71 220 1.0 4.0 0.00 0.00 0.00 83 1007.8
20210621031624 71 220 0.0 2.0 0.00 0.00 0.00 83 1007.7
20210621031131 71 220 0.0 0.0 0.00 0.00 0.00 82 1007.6
20210621030619 71 220 0.0 0.0 0.00 0.00 0.00 82 1007.7
20210621030128 71 220 0.0 0.0 0.00 0.00 0.00 82 1007.8
20210621025614 71 220 0.0 0.0 0.00 0.00 0.00 82 1007.9
20210621025123 71 220 0.0 0.0 0.00 0.00 0.00 81 1008.0
20210621024631 72 220 0.0 0.0 0.00 0.00 0.00 81 1008.0
20210621024122 72 220 0.0 0.0 0.00 0.00 0.00 81 1008.1
20210621023631 72 220 0.0 0.0 0.00 0.00 0.00 81 1008.2
20210621023120 73 220 0.0 3.0 0.00 0.00 0.00 81 1008.2
20210621022627 73 220 1.0 3.0 0.00 0.00 0.00 81 1008.3
20210621022115 73 220 0.0 0.0 0.00 0.00 0.00 81 1008.3
20210621021625 73 221 0.0 4.0 0.00 0.00 0.00 81 1008.4
20210621021133 74 220 1.0 4.0 0.00 0.00 0.00 80 1008.4
20210621020620 74 222 0.0 0.0 0.00 0.00 0.00 80 1008.4
20210621020129 74 221 0.0 0.0 0.00 0.00 0.00 80 1008.4
20210621015621 74 222 0.0 0.0 0.00 0.00 0.00 80 1008.5
20210621015130 75 222 0.0 0.0 0.00 0.00 0.00 80 1008.6
20210621014618 75 222 0.0 1.0 0.00 0.00 0.00 79 1008.6
20210621014126 75 222 0.0 1.0 0.00 0.00 0.00 79 1008.6
20210621013613 75 222 0.0 1.0 0.00 0.00 0.00 79 1008.6
20210621013122 76 222 0.0 0.0 0.00 0.00 0.00 78 1008.6
20210621012631 76 221 0.0 4.0 0.00 0.00 0.00 78 1008.5
20210621012119 76 222 1.0 4.0 0.00 0.00 0.00 78 1008.5
20210621011628 77 220 0.0 5.0 0.00 0.00 0.00 78 1008.5
20210621011120 77 218 2.0 5.0 0.00 0.00 0.00 78 1008.5
20210621010630 78 222 0.0 0.0 0.00 0.00 0.00 77 1008.5
20210621010117 78 222 0.0 0.0 0.00 0.00 0.00 77 1008.3
20210621005626 78 222 0.0 0.0 0.00 0.00 0.00 76 1008.3
20210621005115 79 222 0.0 0.0 0.00 0.00 0.00 75 1008.4
20210621004622 80 221 0.0 0.0 0.00 0.00 0.00 76 1008.4
20210621004130 80 221 0.0 0.0 0.00 0.00 0.00 74 1008.4
20210621003618 81 222 0.0 0.0 0.00 0.00 0.00 73 1008.3
20210621003129 82 221 0.0 0.0 0.00 0.00 0.00 72 1008.2
20210621002621 82 222 0.0 0.0 0.00 0.00 0.00 70 1008.2
20210621002130 83 222 0.0 2.0 0.00 0.00 0.00 70 1008.2
20210621001619 83 222 0.0 2.0 0.00 0.00 0.00 69 1008.2
20210621001127 84 221 0.0 0.0 0.00 0.00 0.00 69 1008.1
20210621000614 85 221 0.0 0.0 0.00 0.00 0.00 70 1008.1
20210621000124 85 221 0.0 0.0 0.00 0.00 0.00 67 1008.1
20210620235632 85 221 0.0 0.0 0.00 0.00 0.00 66 1008.0
20210620235121 86 221 0.0 0.0 0.00 0.00 0.00 67 1008.0
20210620234628 86 221 0.0 0.0 0.00 0.00 0.00 67 1007.9
20210620234119 87 221 0.0 0.0 0.00 0.00 0.00 66 1008.1
20210620233627 86 221 0.0 4.0 0.00 0.00 0.00 62 1008.0
20210620233116 87 221 0.0 5.0 0.00 0.00 0.00 60 1008.0
20210620232623 87 221 2.0 5.0 0.00 0.00 0.00 60 1008.0
20210620232132 87 227 0.0 6.0 0.00 0.00 0.00 60 1008.0
20210620231620 87 226 4.0 7.0 0.00 0.00 0.00 58 1008.0
20210620231128 87 241 4.0 8.0 0.00 0.00 0.00 58 1008.0
20210620230616 87 240 3.0 8.0 0.00 0.00 0.00 59 1007.8
20210620230125 87 245 3.0 8.0 0.00 0.00 0.00 58 1007.9
20210620225616 88 245 3.0 10.0 0.00 0.00 0.00 57 1007.8
20210620225125 88 236 3.0 10.0 0.00 0.00 0.00 58 1007.9
20210620224615 88 247 6.0 9.0 0.00 0.00 0.00 56 1007.9
20210620224122 88 226 6.0 9.0 0.00 0.00 0.00 56 1007.8
20210620223631 88 228 5.0 9.0 0.00 0.00 0.00 57 1007.9
20210620223121 88 229 5.0 12.0 0.00 0.00 0.00 56 1007.9
20210620222630 88 228 7.0 12.0 0.00 0.00 0.00 56 1008.0
20210620222116 89 233 3.0 9.0 0.00 0.00 0.00 57 1008.0
20210620221626 89 235 5.0 9.0 0.00 0.00 0.00 56 1008.0
20210620221118 89 219 3.0 8.0 0.00 0.00 0.00 58 1007.9
20210620220626 88 214 3.0 8.0 0.00 0.00 0.00 57 1007.9
20210620220114 88 232 5.0 9.0 0.00 0.00 0.00 56 1008.0
20210620215622 88 256 2.0 9.0 0.00 0.00 0.00 57 1007.9
20210620215129 88 242 5.0 9.0 0.00 0.00 0.00 56 1008.0
20210620214619 89 241 2.0 7.0 0.00 0.00 0.00 57 1008.0
20210620214123 89 252 2.0 9.0 0.00 0.00 0.00 55 1008.0
20210620213630 89 231 7.0 12.0 0.00 0.00 0.00 55 1008.0
20210620213119 89 228 10.0 12.0 0.00 0.00 0.00 55 1008.1
20210620212628 89 237 7.0 11.0 0.00 0.00 0.00 55 1008.0
20210620212120 89 235 5.0 10.0 0.00 0.00 0.00 56 1007.9
20210620211630 89 253 6.0 10.0 0.00 0.00 0.00 55 1007.9
20210620211118 89 236 6.0 10.0 0.00 0.00 0.00 56 1007.9
20210620210625 88 187 6.0 13.0 0.00 0.00 0.00 56 1007.9
20210620210114 88 264 7.0 12.0 0.00 0.00 0.00 57 1007.8
20210620205622 87 237 8.0 11.0 0.00 0.00 0.00 57 1007.9
20210620205130 87 225 7.0 10.0 0.00 0.00 0.00 57 1008.1
20210620204619 87 224 3.0 10.0 0.00 0.00 0.00 57 1008.0
20210620204127 88 246 5.0 10.0 0.00 0.00 0.00 56 1007.9
20210620203618 89 236 5.0 13.0 0.00 0.00 0.00 54 1007.9
20210620203126 90 241 10.0 13.0 0.00 0.00 0.00 53 1008.0
20210620202613 90 208 3.0 8.0 0.00 0.00 0.00 53 1008.0
20210620202122 89 250 6.0 8.0 0.00 0.00 0.00 53 1008.0
20210620201631 89 236 4.0 11.0 0.00 0.00 0.00 55 1008.1
20210620201115 90 288 4.0 11.0 0.00 0.00 0.00 54 1008.2
20210620200624 89 230 5.0 10.0 0.00 0.00 0.00 53 1008.3
20210620200129 90 274 6.0 13.0 0.00 0.00 0.00 55 1008.4
20210620195617 90 236 6.0 13.0 0.00 0.00 0.00 56 1008.4
20210620195130 90 224 7.0 11.0 0.00 0.00 0.00 54 1008.4
20210620194618 90 245 6.0 11.0 0.00 0.00 0.00 54 1008.4
20210620194126 90 197 4.0 11.0 0.00 0.00 0.00 55 1008.5
20210620193634 90 240 7.0 11.0 0.00 0.00 0.00 55 1008.6
20210620193122 89 190 6.0 12.0 0.00 0.00 0.00 57 1008.7
20210620192630 89 215 7.0 15.0 0.00 0.00 0.00 56 1008.7
20210620192118 88 202 8.0 15.0 0.00 0.00 0.00 57 1008.7
20210620191628 88 225 4.0 14.0 0.00 0.00 0.00 55 1008.8
20210620191116 89 220 7.0 15.0 0.00 0.00 0.00 56 1008.9
20210620190628 89 223 10.0 15.0 0.00 0.00 0.00 56 1008.9
20210620190117 88 222 8.0 14.0 0.00 0.00 0.00 60 1008.8
20210620185624 87 182 4.0 12.0 0.00 0.00 0.00 59 1008.8
20210620185129 87 236 5.0 9.0 0.00 0.00 0.00 58 1008.9
20210620184615 88 215 1.0 10.0 0.00 0.00 0.00 59 1008.9
20210620184123 88 239 4.0 14.0 0.00 0.00 0.00 57 1008.9
20210620183631 89 231 10.0 14.0 0.00 0.00 0.00 56 1008.9
20210620183121 89 201 2.0 12.0 0.00 0.00 0.00 57 1008.9
20210620182629 89 186 6.0 12.0 0.00 0.00 0.00 58 1008.9
20210620182121 89 210 3.0 9.0 0.00 0.00 0.00 57 1009.0
20210620181631 88 183 4.0 10.0 0.00 0.00 0.00 62 1009.0
20210620181117 88 205 5.0 12.0 0.00 0.00 0.00 60 1009.0
20210620180626 88 228 6.0 12.0 0.00 0.00 0.00 61 1009.1
20210620180115 88 192 6.0 14.0 0.00 0.00 0.00 61 1009.0
20210620175623 88 220 5.0 14.0 0.00 0.00 0.00 60 1009.1
20210620175131 87 180 7.0 12.0 0.00 0.00 0.00 62 1009.1
20210620174618 87 176 8.0 13.0 0.00 0.00 0.00 65 1009.2
20210620174125 86 187 5.0 13.0 0.00 0.00 0.00 62 1009.3
20210620173617 86 172 9.0 13.0 0.00 0.00 0.00 63 1009.3
20210620173127 85 176 8.0 13.0 0.00 0.00 0.00 67 1009.3
20210620172614 85 188 7.0 13.0 0.00 0.00 0.00 65 1009.4
20210620172123 85 207 8.0 15.0 0.00 0.00 0.00 65 1009.4
20210620171634 85 173 10.0 13.0 0.00 0.00 0.00 63 1009.5
20210620171119 85 174 3.0 12.0 0.00 0.00 0.00 64 1009.4
20210620170627 85 255 6.0 12.0 0.00 0.00 0.00 63 1009.4
20210620170117 84 228 4.0 16.0 0.00 0.00 0.00 61 1009.5
20210620165623 84 228 9.0 16.0 0.00 0.00 0.00 61 1009.8
20210620165115 85 272 4.0 11.0 0.00 0.00 0.00 63 1009.9
20210620164623 84 180 2.0 13.0 0.00 0.00 0.00 66 1009.8
20210620164127 84 236 3.0 7.0 0.00 0.00 0.00 64 1010.0
20210620163632 84 196 2.0 12.0 0.00 0.00 0.00 67 1010.1
20210620163120 83 203 5.0 12.0 0.00 0.00 0.00 66 1010.1
20210620162627 83 214 4.0 8.0 0.00 0.00 0.00 67 1010.2
20210620162115 83 233 6.0 9.0 0.00 0.00 0.00 66 1010.3
20210620161625 82 237 4.0 10.0 0.00 0.00 0.00 67 1010.3
20210620161134 82 243 3.0 9.0 0.00 0.00 0.00 68 1010.4
20210620160622 82 217 4.0 10.0 0.00 0.00 0.00 67 1010.4
20210620160115 82 225 7.0 10.0 0.00 0.00 0.00 67 1010.5
20210620155642 83 233 4.0 13.0 0.00 0.00 0.00 68 1010.5
20210620155119 83 180 9.0 16.0 0.00 0.00 0.00 69 1010.5
20210620154628 83 178 12.0 16.0 0.00 0.00 0.00 67 1010.5
20210620154117 83 168 11.0 15.0 0.00 0.00 0.00 72 1010.6
20210620153626 82 159 7.0 16.0 0.00 0.00 0.00 71 1010.7
20210620153114 82 174 10.0 19.0 0.00 0.00 0.00 71 1010.8
20210620152622 82 178 12.0 20.0 0.00 0.00 0.00 71 1010.8
20210620152130 82 166 10.0 14.0 0.00 0.00 0.00 70 1010.8
20210620151623 83 178 8.0 12.0 0.00 0.00 0.00 69 1010.8
20210620151131 83 210 5.0 10.0 0.00 0.00 0.00 70 1010.8
20210620150619 83 200 6.0 12.0 0.00 0.00 0.00 71 1010.7
20210620150127 82 168 5.0 10.0 0.00 0.00 0.00 72 1010.6
20210620145614 82 164 5.0 13.0 0.00 0.00 0.00 73 1010.7
20210620145122 82 166 8.0 17.0 0.00 0.00 0.00 73 1010.7
20210620144632 81 167 10.0 17.0 0.00 0.00 0.00 73 1010.7
20210620144119 80 187 7.0 11.0 0.00 0.00 0.00 74 1010.7
20210620143628 80 187 3.0 16.0 0.00 0.00 0.00 74 1010.7
20210620143122 79 189 8.0 16.0 0.00 0.00 0.00 75 1010.8
20210620142630 79 179 7.0 11.0 0.00 0.00 0.00 75 1010.7
20210620142119 78 214 7.0 12.0 0.00 0.00 0.00 75 1010.9
20210620141628 78 232 5.0 13.0 0.00 0.00 0.00 75 1011.0
20210620141116 78 192 8.0 13.0 0.00 0.00 0.00 76 1010.9
20210620140625 78 232 7.0 12.0 0.00 0.00 0.00 75 1010.9
20210620140115 78 205 6.0 13.0 0.00 0.00 0.00 76 1010.9
20210620135623 78 225 6.0 11.0 0.00 0.00 0.00 75 1010.9
20210620135132 78 174 5.0 15.0 0.00 0.00 0.00 76 1010.9
20210620134626 78 189 6.0 15.0 0.00 0.00 0.00 76 1010.9
20210620134114 77 184 8.0 14.0 0.00 0.00 0.00 77 1011.0
20210620133623 76 195 8.0 12.0 0.00 0.00 0.00 78 1011.2
20210620133113 75 197 8.0 12.0 0.00 0.00 0.00 79 1011.0
20210620132622 75 209 5.0 10.0 0.00 0.00 0.00 79 1011.0
20210620132130 75 214 6.0 10.0 0.00 0.00 0.00 80 1011.1
20210620131620 74 236 4.0 8.0 0.00 0.00 0.00 81 1011.0
20210620131129 73 205 4.0 8.0 0.00 0.00 0.00 81 1011.0
20210620130615 73 221 3.0 7.0 0.00 0.00 0.00 82 1011.1
20210620130129 72 229 0.0 6.0 0.00 0.00 0.00 82 1011.1
20210620125617 72 234 2.0 6.0 0.00 0.00 0.00 82 1011.4